Time,TemperatureF,DewpointF,PressureIn,WindDirection,WindDirectionDegrees,WindSpeedMPH,WindSpeedGustMPH,Humidity,HourlyPrecipIn,Conditions,Clouds,dailyrainin,SoftwareType,DateUTC
2013-02-26 00:00:00,51.0,32.5,29.87,West,276,2.0,18.0,49,0.00,,---,0.00,VWS V14.01,2013-02-26 06:00:00,
2013-02-26 00:05:00,50.8,32.3,29.87,WNW,297,3.0,7.0,49,0.00,,---,0.00,VWS V14.01,2013-02-26 06:05:00,
2013-02-26 00:10:00,50.5,32.6,29.87,WNW,290,3.0,10.0,50,0.00,,---,0.00,VWS V14.01,2013-02-26 06:10:00,
2013-02-26 00:15:00,50.3,32.4,29.87,WNW,297,3.0,10.0,50,0.00,,---,0.00,VWS V14.01,2013-02-26 06:15:00,
2013-02-26 00:20:00,50.1,32.7,29.87,West,280,5.0,10.0,51,0.00,,---,0.00,VWS V14.01,2013-02-26 06:20:00,
2013-02-26 00:25:00,50.1,32.7,29.87,WNW,297,8.0,10.0,51,0.00,,---,0.00,VWS V14.01,2013-02-26 06:25:00,
2013-02-26 00:30:00,49.9,32.5,29.87,WNW,283,2.0,10.0,51,0.00,,---,0.00,VWS V14.01,2013-02-26 06:30:00,
2013-02-26 00:35:00,49.7,32.8,29.87,WNW,288,8.0,10.0,52,0.00,,---,0.00,VWS V14.01,2013-02-26 06:35:00,
2013-02-26 00:40:00,49.6,32.7,29.87,NW,316,8.0,10.0,52,0.00,,---,0.00,VWS V14.01,2013-02-26 06:40:00,
2013-02-26 00:45:00,49.4,33.0,29.87,WNW,301,5.0,10.0,53,0.00,,---,0.00,VWS V14.01,2013-02-26 06:45:00,
2013-02-26 00:50:00,49.3,32.9,29.87,West,273,2.0,10.0,53,0.00,,---,0.00,VWS V14.01,2013-02-26 06:50:00,
2013-02-26 00:55:00,49.3,32.9,29.88,WNW,288,3.0,10.0,53,0.00,,---,0.00,VWS V14.01,2013-02-26 06:55:00,
2013-02-26 01:00:00,49.2,33.3,29.88,WNW,283,3.0,10.0,54,0.00,,---,0.00,VWS V14.01,2013-02-26 07:00:00,
2013-02-26 01:05:00,49.0,33.1,29.88,WNW,285,4.0,9.0,54,0.00,,---,0.00,VWS V14.01,2013-02-26 07:05:00,
2013-02-26 01:10:00,49.0,33.1,29.87,WNW,298,7.0,9.0,54,0.00,,---,0.00,VWS V14.01,2013-02-26 07:10:00,
2013-02-26 01:15:00,48.9,33.0,29.87,NW,304,4.0,13.0,54,0.00,,---,0.00,VWS V14.01,2013-02-26 07:15:00,
2013-02-26 01:20:00,48.9,33.0,29.88,WNW,287,3.0,13.0,54,0.00,,---,0.00,VWS V14.01,2013-02-26 07:20:00,
2013-02-26 01:25:00,48.8,32.9,29.88,NW,314,5.0,13.0,54,0.00,,---,0.00,VWS V14.01,2013-02-26 07:25:00,
2013-02-26 01:30:00,49.1,33.2,29.88,West,280,5.0,13.0,54,0.00,,---,0.00,VWS V14.01,2013-02-26 07:30:00,
2013-02-26 01:35:00,49.1,33.2,29.88,WNW,303,4.0,13.0,54,0.00,,---,0.00,VWS V14.01,2013-02-26 07:35:00,
2013-02-26 01:40:00,49.3,32.9,29.88,WNW,297,6.0,14.0,53,0.00,,---,0.00,VWS V14.01,2013-02-26 07:40:00,
2013-02-26 01:45:00,49.3,32.9,29.88,WNW,290,6.0,14.0,53,0.00,,---,0.00,VWS V14.01,2013-02-26 07:45:00,
2013-02-26 01:50:00,49.3,32.9,29.88,NW,305,5.0,14.0,53,0.00,,---,0.00,VWS V14.01,2013-02-26 07:50:00,
2013-02-26 01:55:00,49.1,33.2,29.88,NW,307,7.0,14.0,54,0.00,,---,0.00,VWS V14.01,2013-02-26 07:55:00,
2013-02-26 02:00:00,48.9,33.0,29.88,WNW,282,4.0,14.0,54,0.00,,---,0.00,VWS V14.01,2013-02-26 08:00:00,
2013-02-26 02:05:00,48.7,33.3,29.88,NW,307,7.0,7.0,55,0.00,,---,0.00,VWS V14.01,2013-02-26 08:05:00,
2013-02-26 02:10:00,48.5,33.1,29.88,West,259,4.0,9.0,55,0.00,,---,0.00,VWS V14.01,2013-02-26 08:10:00,
2013-02-26 02:15:00,48.1,33.2,29.88,NW,309,3.0,9.0,56,0.00,,---,0.00,VWS V14.01,2013-02-26 08:15:00,
2013-02-26 02:20:00,47.9,33.4,29.88,West,279,5.0,9.0,57,0.00,,---,0.00,VWS V14.01,2013-02-26 08:20:00,
2013-02-26 02:25:00,47.6,33.6,29.88,WNW,288,4.0,9.0,58,0.00,,---,0.00,VWS V14.01,2013-02-26 08:25:00,
2013-02-26 02:30:00,47.5,33.5,29.88,WNW,298,2.0,9.0,58,0.00,,---,0.00,VWS V14.01,2013-02-26 08:30:00,
2013-02-26 02:42:00,47.2,33.2,29.88,WNW,290,5.0,9.0,58,0.00,,---,0.00,VWS V14.01,2013-02-26 08:42:00,
2013-02-26 02:47:00,46.5,32.5,29.88,West,281,1.0,9.0,58,0.00,,---,0.00,VWS V14.01,2013-02-26 08:47:00,
2013-02-26 02:52:00,46.4,32.9,29.88,WNW,294,4.0,9.0,59,0.00,,---,0.00,VWS V14.01,2013-02-26 08:52:00,
2013-02-26 02:57:00,46.1,32.6,29.88,West,274,3.0,9.0,59,0.00,,---,0.00,VWS V14.01,2013-02-26 08:57:00,
2013-02-26 03:02:00,45.8,32.7,29.89,West,271,3.0,9.0,60,0.00,,---,0.00,VWS V14.01,2013-02-26 09:02:00,
2013-02-26 03:07:00,45.7,32.6,29.89,WNW,283,5.0,6.0,60,0.00,,---,0.00,VWS V14.01,2013-02-26 09:07:00,
2013-02-26 03:12:00,45.7,32.6,29.89,WNW,287,5.0,8.0,60,0.00,,---,0.00,VWS V14.01,2013-02-26 09:12:00,
2013-02-26 03:17:00,45.8,32.7,29.89,WNW,283,8.0,9.0,60,0.00,,---,0.00,VWS V14.01,2013-02-26 09:17:00,
2013-02-26 03:22:00,45.8,33.1,29.89,West,280,5.0,9.0,61,0.00,,---,0.00,VWS V14.01,2013-02-26 09:22:00,
2013-02-26 03:27:00,45.7,33.0,29.89,West,278,6.0,9.0,61,0.00,,---,0.00,VWS V14.01,2013-02-26 09:27:00,
2013-02-26 03:32:00,45.5,32.8,29.89,WNW,297,4.0,9.0,61,0.00,,---,0.00,VWS V14.01,2013-02-26 09:32:00,
2013-02-26 03:37:00,45.3,33.1,29.88,WNW,294,2.0,9.0,62,0.00,,---,0.00,VWS V14.01,2013-02-26 09:37:00,
2013-02-26 03:42:00,45.1,32.9,29.89,WNW,298,1.0,9.0,62,0.00,,---,0.00,VWS V14.01,2013-02-26 09:42:00,
2013-02-26 03:47:00,44.9,32.7,29.89,WNW,297,6.0,9.0,62,0.00,,---,0.00,VWS V14.01,2013-02-26 09:47:00,
2013-02-26 03:52:00,45.2,32.6,29.89,WNW,295,2.0,9.0,61,0.00,,---,0.00,VWS V14.01,2013-02-26 09:52:00,
2013-02-26 03:57:00,45.1,32.9,29.89,WSW,240,2.0,9.0,62,0.00,,---,0.00,VWS V14.01,2013-02-26 09:57:00,
2013-02-26 04:02:00,45.1,32.9,29.89,West,277,7.0,9.0,62,0.00,,---,0.00,VWS V14.01,2013-02-26 10:02:00,
2013-02-26 04:07:00,45.0,32.8,29.89,West,279,5.0,8.0,62,0.00,,---,0.00,VWS V14.01,2013-02-26 10:07:00,
2013-02-26 04:12:00,44.7,32.9,29.90,WSW,253,5.0,8.0,63,0.00,,---,0.00,VWS V14.01,2013-02-26 10:12:00,
2013-02-26 04:17:00,44.4,33.0,29.90,WNW,290,3.0,8.0,64,0.00,,---,0.00,VWS V14.01,2013-02-26 10:17:00,
2013-02-26 04:22:00,44.1,33.1,29.90,West,266,3.0,8.0,65,0.00,,---,0.00,VWS V14.01,2013-02-26 10:22:00,
2013-02-26 04:27:00,43.9,33.3,29.90,West,281,3.0,8.0,66,0.00,,---,0.00,VWS V14.01,2013-02-26 10:27:00,
2013-02-26 04:32:00,43.6,33.0,29.90,NW,305,3.0,8.0,66,0.00,,---,0.00,VWS V14.01,2013-02-26 10:32:00,
2013-02-26 04:37:00,43.3,33.1,29.90,WNW,288,5.0,8.0,67,0.00,,---,0.00,VWS V14.01,2013-02-26 10:37:00,
2013-02-26 04:42:00,43.1,33.3,29.90,West,266,2.0,8.0,68,0.00,,---,0.00,VWS V14.01,2013-02-26 10:42:00,
2013-02-26 04:47:00,43.1,33.3,29.90,WNW,292,5.0,8.0,68,0.00,,---,0.00,VWS V14.01,2013-02-26 10:47:00,
2013-02-26 04:52:00,43.0,33.2,29.89,WNW,292,3.0,8.0,68,0.00,,---,0.00,VWS V14.01,2013-02-26 10:52:00,
2013-02-26 04:57:00,42.8,33.0,29.89,WNW,295,4.0,8.0,68,0.00,,---,0.00,VWS V14.01,2013-02-26 10:57:00,
2013-02-26 05:02:00,42.7,32.9,29.89,WNW,293,6.0,9.0,68,0.00,,---,0.00,VWS V14.01,2013-02-26 11:02:00,
2013-02-26 05:07:00,43.0,32.8,29.89,NW,308,7.0,10.0,67,0.00,,---,0.00,VWS V14.01,2013-02-26 11:07:00,
2013-02-26 05:12:00,43.5,33.3,29.89,NNW,329,11.0,12.0,67,0.00,,---,0.00,VWS V14.01,2013-02-26 11:12:00,
2013-02-26 05:17:00,44.2,33.2,29.88,NW,326,5.0,12.0,65,0.00,,---,0.00,VWS V14.01,2013-02-26 11:17:00,
2013-02-26 05:22:00,44.6,33.2,29.89,NW,305,4.0,12.0,64,0.00,,---,0.00,VWS V14.01,2013-02-26 11:22:00,
2013-02-26 05:27:00,44.9,33.1,29.89,WNW,299,4.0,12.0,63,0.00,,---,0.00,VWS V14.01,2013-02-26 11:27:00,
2013-02-26 05:32:00,45.0,33.2,29.89,WNW,290,5.0,12.0,63,0.00,,---,0.00,VWS V14.01,2013-02-26 11:32:00,
2013-02-26 05:37:00,45.1,33.7,29.89,NW,305,7.0,12.0,64,0.00,,---,0.00,VWS V14.01,2013-02-26 11:37:00,
2013-02-26 05:42:00,45.3,33.9,29.89,NW,305,3.0,12.0,64,0.00,,---,0.00,VWS V14.01,2013-02-26 11:42:00,
2013-02-26 05:47:00,45.4,34.0,29.89,NW,322,8.0,12.0,64,0.00,,---,0.00,VWS V14.01,2013-02-26 11:47:00,
2013-02-26 05:52:00,45.4,34.0,29.89,WNW,300,11.0,12.0,64,0.00,,---,0.00,VWS V14.01,2013-02-26 11:52:00,
2013-02-26 05:57:00,45.4,33.6,29.90,WNW,288,6.0,12.0,63,0.00,,---,0.00,VWS V14.01,2013-02-26 11:57:00,
2013-02-26 06:02:00,45.2,33.8,29.90,WNW,292,8.0,12.0,64,0.00,,---,0.00,VWS V14.01,2013-02-26 12:02:00,
2013-02-26 06:07:00,45.1,33.7,29.90,WNW,296,4.0,9.0,64,0.00,,---,0.00,VWS V14.01,2013-02-26 12:07:00,
2013-02-26 06:12:00,45.0,33.6,29.90,WNW,288,5.0,11.0,64,0.00,,---,0.00,VWS V14.01,2013-02-26 12:12:00,
2013-02-26 06:17:00,44.9,33.5,29.90,NW,304,9.0,11.0,64,0.00,,---,0.00,VWS V14.01,2013-02-26 12:17:00,
2013-02-26 06:22:00,44.8,33.8,29.91,WNW,283,8.0,11.0,65,0.00,,---,0.00,VWS V14.01,2013-02-26 12:22:00,
2013-02-26 06:27:00,44.6,33.6,29.91,West,277,3.0,11.0,65,0.00,,---,0.00,VWS V14.01,2013-02-26 12:27:00,
2013-02-26 06:32:00,44.3,33.7,29.91,WNW,295,2.0,11.0,66,0.00,,---,0.00,VWS V14.01,2013-02-26 12:32:00,
2013-02-26 06:37:00,43.9,33.7,29.92,WNW,285,6.0,11.0,67,0.00,,---,0.00,VWS V14.01,2013-02-26 12:37:00,
2013-02-26 06:42:00,43.6,33.8,29.92,WNW,283,3.0,11.0,68,0.00,,---,0.00,VWS V14.01,2013-02-26 12:42:00,
2013-02-26 06:47:00,43.4,33.9,29.92,West,277,1.0,11.0,69,0.00,,---,0.00,VWS V14.01,2013-02-26 12:47:00,
2013-02-26 06:52:00,43.1,33.6,29.92,West,273,3.0,11.0,69,0.00,,---,0.00,VWS V14.01,2013-02-26 12:52:00,
2013-02-26 06:58:00,42.8,33.7,29.93,West,277,5.0,11.0,70,0.00,,---,0.00,VWS V14.01,2013-02-26 12:58:00,
2013-02-26 07:03:00,42.6,33.5,29.94,West,264,4.0,6.0,70,0.00,,---,0.00,VWS V14.01,2013-02-26 13:03:00,
2013-02-26 07:08:00,42.5,33.1,29.95,West,273,2.0,7.0,69,0.00,,---,0.00,VWS V14.01,2013-02-26 13:08:00,
2013-02-26 07:13:00,42.6,33.2,29.95,WNW,285,2.0,7.0,69,0.00,,---,0.00,VWS V14.01,2013-02-26 13:13:00,
2013-02-26 07:18:00,42.7,33.2,29.95,WNW,287,4.0,7.0,69,0.00,,---,0.00,VWS V14.01,2013-02-26 13:18:00,
2013-02-26 07:23:00,42.8,33.0,29.95,West,264,5.0,7.0,68,0.00,,---,0.00,VWS V14.01,2013-02-26 13:23:00,
2013-02-26 07:28:00,43.0,32.8,29.95,West,274,5.0,7.0,67,0.00,,---,0.00,VWS V14.01,2013-02-26 13:28:00,
2013-02-26 07:33:00,43.2,33.4,29.95,West,281,3.0,7.0,68,0.00,,---,0.00,VWS V14.01,2013-02-26 13:33:00,
2013-02-26 07:38:00,43.4,33.2,29.95,West,278,4.0,7.0,67,0.00,,---,0.00,VWS V14.01,2013-02-26 13:38:00,
2013-02-26 07:43:00,43.7,33.1,29.96,WNW,283,4.0,7.0,66,0.00,,---,0.00,VWS V14.01,2013-02-26 13:43:00,
2013-02-26 07:48:00,44.3,33.3,29.96,West,280,6.0,7.0,65,0.00,,---,0.00,VWS V14.01,2013-02-26 13:48:00,
2013-02-26 07:53:00,44.8,33.4,29.97,West,276,7.0,8.0,64,0.00,,---,0.00,VWS V14.01,2013-02-26 13:53:00,
2013-02-26 07:58:00,45.3,33.5,29.97,WNW,287,6.0,9.0,63,0.00,,---,0.00,VWS V14.01,2013-02-26 13:58:00,
2013-02-26 08:03:00,45.9,33.6,29.98,WNW,290,4.0,5.0,62,0.00,,---,0.00,VWS V14.01,2013-02-26 14:03:00,
2013-02-26 08:08:00,46.6,34.3,29.98,WNW,301,2.0,8.0,62,0.00,,---,0.00,VWS V14.01,2013-02-26 14:08:00,
2013-02-26 08:13:00,47.4,34.2,29.98,West,281,7.0,9.0,60,0.00,,---,0.00,VWS V14.01,2013-02-26 14:13:00,
2013-02-26 08:18:00,48.2,33.7,29.99,NW,310,9.0,11.0,57,0.00,,---,0.00,VWS V14.01,2013-02-26 14:18:00,
2013-02-26 08:23:00,48.9,34.3,29.99,West,278,7.0,11.0,57,0.00,,---,0.00,VWS V14.01,2013-02-26 14:23:00,
2013-02-26 08:28:00,49.5,34.0,29.99,West,280,8.0,12.0,55,0.00,,---,0.00,VWS V14.01,2013-02-26 14:28:00,
2013-02-26 08:33:00,49.9,33.0,29.99,NNW,332,5.0,13.0,52,0.00,,---,0.00,VWS V14.01,2013-02-26 14:33:00,
2013-02-26 08:38:00,50.3,33.4,29.99,WNW,297,3.0,13.0,52,0.00,,---,0.00,VWS V14.01,2013-02-26 14:38:00,
2013-02-26 08:43:00,50.6,32.7,29.99,WSW,250,9.0,14.0,50,0.00,,---,0.00,VWS V14.01,2013-02-26 14:43:00,
2013-02-26 08:48:00,50.6,32.7,29.99,WNW,302,9.0,17.0,50,0.00,,---,0.00,VWS V14.01,2013-02-26 14:48:00,
2013-02-26 08:53:00,50.8,33.3,29.98,WNW,284,5.0,17.0,51,0.00,,---,0.00,VWS V14.01,2013-02-26 14:53:00,
2013-02-26 08:58:00,51.0,33.0,29.98,NW,308,6.0,17.0,50,0.00,,---,0.00,VWS V14.01,2013-02-26 14:58:00,
2013-02-26 09:03:00,51.1,32.6,29.98,WNW,300,7.0,9.0,49,0.00,,---,0.00,VWS V14.01,2013-02-26 15:03:00,
2013-02-26 09:08:00,51.4,32.9,29.98,WNW,293,5.0,13.0,49,0.00,,---,0.00,VWS V14.01,2013-02-26 15:08:00,
2013-02-26 09:13:00,51.5,33.5,29.98,WNW,301,9.0,15.0,50,0.00,,---,0.00,VWS V14.01,2013-02-26 15:13:00,
2013-02-26 09:18:00,51.9,33.4,29.98,WNW,302,7.0,15.0,49,0.00,,---,0.00,VWS V14.01,2013-02-26 15:18:00,
2013-02-26 09:23:00,52.3,33.2,29.98,NW,314,7.0,15.0,48,0.00,,---,0.00,VWS V14.01,2013-02-26 15:23:00,
2013-02-26 09:28:00,52.3,32.7,29.98,NE,45,8.0,15.0,47,0.00,,---,0.00,VWS V14.01,2013-02-26 15:28:00,
2013-02-26 09:33:00,52.7,33.6,29.99,West,271,12.0,15.0,48,0.00,,---,0.00,VWS V14.01,2013-02-26 15:33:00,
2013-02-26 09:38:00,53.2,33.5,29.98,West,263,6.0,15.0,47,0.00,,---,0.00,VWS V14.01,2013-02-26 15:38:00,
2013-02-26 09:43:00,53.5,33.8,29.99,NW,314,4.0,15.0,47,0.00,,---,0.00,VWS V14.01,2013-02-26 15:43:00,
2013-02-26 09:48:00,53.9,34.7,29.99,West,276,9.0,15.0,48,0.00,,---,0.00,VWS V14.01,2013-02-26 15:48:00,
2013-02-26 09:52:00,54.0,34.2,30.00,WNW,288,2.0,15.0,47,0.00,,---,0.00,VWS V14.01,2013-02-26 15:52:00,
2013-02-26 09:58:00,54.3,35.6,30.00,West,277,6.0,15.0,49,0.00,,---,0.00,VWS V14.01,2013-02-26 15:58:00,
2013-02-26 10:03:00,54.6,34.8,29.99,NNW,338,7.0,7.0,47,0.00,,---,0.00,VWS V14.01,2013-02-26 16:03:00,
2013-02-26 10:08:00,54.7,33.8,29.99,West,280,8.0,14.0,45,0.00,,---,0.00,VWS V14.01,2013-02-26 16:08:00,
2013-02-26 10:13:00,55.1,34.7,29.99,West,267,4.0,14.0,46,0.00,,---,0.00,VWS V14.01,2013-02-26 16:13:00,
2013-02-26 10:17:00,55.3,33.8,29.99,West,273,4.0,14.0,44,0.00,,---,0.00,VWS V14.01,2013-02-26 16:17:00,
2013-02-26 10:22:00,55.8,33.7,29.99,NW,304,10.0,14.0,43,0.00,,---,0.00,VWS V14.01,2013-02-26 16:22:00,
2013-02-26 10:27:00,56.0,34.4,29.99,West,277,8.0,14.0,44,0.00,,---,0.00,VWS V14.01,2013-02-26 16:27:00,
2013-02-26 10:32:00,56.0,33.8,29.99,WNW,287,7.0,14.0,43,0.00,,---,0.00,VWS V14.01,2013-02-26 16:32:00,
2013-02-26 10:37:00,56.2,34.0,29.99,WNW,284,7.0,14.0,43,0.00,,---,0.00,VWS V14.01,2013-02-26 16:37:00,
2013-02-26 10:42:00,56.5,34.3,29.99,WNW,287,5.0,14.0,43,0.00,,---,0.00,VWS V14.01,2013-02-26 16:42:00,
2013-02-26 10:47:00,57.0,34.2,29.99,West,264,3.0,14.0,42,0.00,,---,0.00,VWS V14.01,2013-02-26 16:47:00,
2013-02-26 10:52:00,57.4,34.5,29.99,West,269,10.0,14.0,42,0.00,,---,0.00,VWS V14.01,2013-02-26 16:52:00,
2013-02-26 10:57:00,57.2,34.9,29.99,WNW,297,4.0,14.0,43,0.00,,---,0.00,VWS V14.01,2013-02-26 16:57:00,
2013-02-26 11:02:00,58.0,34.5,29.99,WNW,285,12.0,13.0,41,0.00,,---,0.00,VWS V14.01,2013-02-26 17:02:00,
2013-02-26 11:07:00,58.0,33.8,29.99,NW,305,4.0,13.0,40,0.00,,---,0.00,VWS V14.01,2013-02-26 17:07:00,
2013-02-26 11:12:00,58.4,34.2,29.99,WNW,298,4.0,13.0,40,0.00,,---,0.00,VWS V14.01,2013-02-26 17:12:00,
2013-02-26 11:17:00,58.8,34.5,29.98,WNW,293,12.0,13.0,40,0.00,,---,0.00,VWS V14.01,2013-02-26 17:17:00,
2013-02-26 11:22:00,58.5,33.7,29.98,West,278,4.0,13.0,39,0.00,,---,0.00,VWS V14.01,2013-02-26 17:22:00,
2013-02-26 11:27:00,58.8,33.9,29.98,WNW,301,4.0,13.0,39,0.00,,---,0.00,VWS V14.01,2013-02-26 17:27:00,
2013-02-26 11:32:00,59.0,33.5,29.98,West,278,6.0,14.0,38,0.00,,---,0.00,VWS V14.01,2013-02-26 17:32:00,
2013-02-26 11:37:00,59.5,34.5,29.98,WNW,282,6.0,14.0,39,0.00,,---,0.00,VWS V14.01,2013-02-26 17:37:00,
2013-02-26 11:42:00,59.5,33.9,29.97,NW,316,3.0,14.0,38,0.00,,---,0.00,VWS V14.01,2013-02-26 17:42:00,
2013-02-26 11:47:00,60.1,35.1,29.98,West,274,7.0,14.0,39,0.00,,---,0.00,VWS V14.01,2013-02-26 17:47:00,
2013-02-26 11:52:00,60.4,34.0,29.97,NW,312,4.0,14.0,37,0.00,,---,0.00,VWS V14.01,2013-02-26 17:52:00,
2013-02-26 11:57:00,61.0,34.6,29.97,WNW,288,8.0,14.0,37,0.00,,---,0.00,VWS V14.01,2013-02-26 17:57:00,
2013-02-26 12:02:00,61.1,34.0,29.97,WSW,257,10.0,14.0,36,0.00,,---,0.00,VWS V14.01,2013-02-26 18:02:00,
2013-02-26 12:07:00,61.5,32.9,29.97,WNW,285,9.0,11.0,34,0.00,,---,0.00,VWS V14.01,2013-02-26 18:07:00,
2013-02-26 12:12:00,61.5,32.9,29.97,NW,314,9.0,14.0,34,0.00,,---,0.00,VWS V14.01,2013-02-26 18:12:00,
2013-02-26 12:17:00,61.4,32.1,29.97,WNW,291,4.0,14.0,33,0.00,,---,0.00,VWS V14.01,2013-02-26 18:17:00,
2013-02-26 12:22:00,61.4,31.3,29.97,West,280,9.0,14.0,32,0.00,,---,0.00,VWS V14.01,2013-02-26 18:22:00,
2013-02-26 12:27:00,61.4,32.1,29.96,West,265,7.0,14.0,33,0.00,,---,0.00,VWS V14.01,2013-02-26 18:27:00,
2013-02-26 12:32:00,61.4,33.5,29.96,NNW,328,1.0,14.0,35,0.00,,---,0.00,VWS V14.01,2013-02-26 18:32:00,
2013-02-26 12:37:00,61.4,32.8,29.96,West,277,4.0,14.0,34,0.00,,---,0.00,VWS V14.01,2013-02-26 18:37:00,
2013-02-26 12:42:00,61.5,32.2,29.95,West,274,9.0,14.0,33,0.00,,---,0.00,VWS V14.01,2013-02-26 18:42:00,
2013-02-26 12:47:00,61.7,32.3,29.95,West,281,4.0,14.0,33,0.00,,---,0.00,VWS V14.01,2013-02-26 18:47:00,
2013-02-26 12:52:00,61.9,31.7,29.95,WNW,285,3.0,14.0,32,0.00,,---,0.00,VWS V14.01,2013-02-26 18:52:00,
2013-02-26 12:57:00,62.3,32.9,29.94,WNW,286,6.0,14.0,33,0.00,,---,0.00,VWS V14.01,2013-02-26 18:57:00,
2013-02-26 13:02:00,62.7,31.6,29.94,NW,308,5.0,14.0,31,0.00,,---,0.00,VWS V14.01,2013-02-26 19:02:00,
2013-02-26 13:07:00,63.4,31.5,29.93,West,281,8.0,14.0,30,0.00,,---,0.00,VWS V14.01,2013-02-26 19:07:00,
2013-02-26 13:12:00,63.6,31.6,29.93,WNW,299,5.0,14.0,30,0.00,,---,0.00,VWS V14.01,2013-02-26 19:12:00,
2013-02-26 13:17:00,63.8,33.4,29.93,NW,313,7.0,14.0,32,0.00,,---,0.00,VWS V14.01,2013-02-26 19:17:00,
2013-02-26 13:22:00,64.1,34.4,29.92,WSW,255,3.0,14.0,33,0.00,,---,0.00,VWS V14.01,2013-02-26 19:22:00,
2013-02-26 13:27:00,65.0,32.8,29.92,West,277,11.0,15.0,30,0.00,,---,0.00,VWS V14.01,2013-02-26 19:27:00,
2013-02-26 13:32:00,65.4,34.8,29.92,NW,325,5.0,15.0,32,0.00,,---,0.00,VWS V14.01,2013-02-26 19:32:00,
2013-02-26 13:37:00,65.1,34.5,29.91,WNW,303,8.0,15.0,32,0.00,,---,0.00,VWS V14.01,2013-02-26 19:37:00,
2013-02-26 13:42:00,65.4,31.5,29.91,NW,305,8.0,15.0,28,0.00,,---,0.00,VWS V14.01,2013-02-26 19:42:00,
2013-02-26 13:47:00,65.6,30.8,29.91,West,274,3.0,15.0,27,0.00,,---,0.00,VWS V14.01,2013-02-26 19:47:00,
2013-02-26 13:52:00,66.2,30.3,29.90,West,277,5.0,15.0,26,0.00,,---,0.00,VWS V14.01,2013-02-26 19:52:00,
2013-02-26 13:57:00,66.8,31.8,29.90,NW,305,8.0,15.0,27,0.00,,---,0.00,VWS V14.01,2013-02-26 19:57:00,
2013-02-26 14:02:00,67.4,36.5,29.90,NW,316,1.0,15.0,32,0.00,,---,0.00,VWS V14.01,2013-02-26 20:02:00,
2013-02-26 14:07:00,67.0,31.0,29.90,NNW,329,2.0,10.0,26,0.00,,---,0.00,VWS V14.01,2013-02-26 20:07:00,
2013-02-26 14:13:00,66.7,32.6,29.90,WNW,298,4.0,10.0,28,0.00,,---,0.00,VWS V14.01,2013-02-26 20:13:00,
2013-02-26 14:17:00,66.9,34.5,29.90,North,9,3.0,10.0,30,0.00,,---,0.00,VWS V14.01,2013-02-26 20:17:00,
2013-02-26 14:22:00,65.5,41.2,29.90,ESE,112,12.0,12.0,41,0.00,,---,0.00,VWS V14.01,2013-02-26 20:22:00,
2013-02-26 14:28:00,63.7,40.8,29.90,SSE,162,10.0,15.0,43,0.00,,---,0.00,VWS V14.01,2013-02-26 20:28:00,
2013-02-26 14:33:00,63.0,39.6,29.90,SSE,161,5.0,15.0,42,0.00,,---,0.00,VWS V14.01,2013-02-26 20:33:00,
2013-02-26 14:38:00,63.0,39.6,29.90,SE,128,4.0,15.0,42,0.00,,---,0.00,VWS V14.01,2013-02-26 20:38:00,
2013-02-26 14:43:00,63.2,41.5,29.90,South,179,4.0,15.0,45,0.00,,---,0.00,VWS V14.01,2013-02-26 20:43:00,
2013-02-26 14:47:00,63.1,42.6,29.90,South,173,5.0,15.0,47,0.00,,---,0.00,VWS V14.01,2013-02-26 20:47:00,
2013-02-26 14:53:00,63.3,41.0,29.90,SSE,153,6.0,15.0,44,0.00,,---,0.00,VWS V14.01,2013-02-26 20:53:00,
2013-02-26 14:58:00,63.5,42.4,29.90,ESE,114,2.0,15.0,46,0.00,,---,0.00,VWS V14.01,2013-02-26 20:58:00,
2013-02-26 15:03:00,63.2,42.1,29.90,SE,138,5.0,6.0,46,0.00,,---,0.00,VWS V14.01,2013-02-26 21:03:00,
2013-02-26 15:08:00,63.1,42.0,29.90,ESE,114,5.0,6.0,46,0.00,,---,0.00,VWS V14.01,2013-02-26 21:08:00,
2013-02-26 15:13:00,62.8,41.2,29.90,SE,143,5.0,7.0,45,0.00,,---,0.00,VWS V14.01,2013-02-26 21:13:00,
2013-02-26 15:18:00,63.0,40.8,29.89,East,88,3.0,7.0,44,0.00,,---,0.00,VWS V14.01,2013-02-26 21:18:00,
2013-02-26 15:23:00,63.3,39.8,29.89,East,93,7.0,7.0,42,0.00,,---,0.00,VWS V14.01,2013-02-26 21:23:00,
2013-02-26 15:28:00,63.3,39.8,29.89,East,89,6.0,8.0,42,0.00,,---,0.00,VWS V14.01,2013-02-26 21:28:00,
2013-02-26 15:33:00,63.3,38.6,29.89,ESE,105,4.0,8.0,40,0.00,,---,0.00,VWS V14.01,2013-02-26 21:33:00,
2013-02-26 15:37:00,63.4,38.7,29.89,ESE,115,4.0,8.0,40,0.00,,---,0.00,VWS V14.01,2013-02-26 21:37:00,
2013-02-26 15:42:00,63.5,39.4,29.89,East,88,7.0,8.0,41,0.00,,---,0.00,VWS V14.01,2013-02-26 21:42:00,
2013-02-26 15:48:00,63.2,39.1,29.89,East,89,5.0,8.0,41,0.00,,---,0.00,VWS V14.01,2013-02-26 21:48:00,
2013-02-26 15:53:00,63.3,38.6,29.88,ESE,110,4.0,8.0,40,0.00,,---,0.00,VWS V14.01,2013-02-26 21:53:00,
2013-02-26 15:58:00,63.5,39.4,29.89,SE,145,3.0,8.0,41,0.00,,---,0.00,VWS V14.01,2013-02-26 21:58:00,
2013-02-26 16:03:00,64.1,38.7,29.89,East,98,4.0,5.0,39,0.00,,---,0.00,VWS V14.01,2013-02-26 22:03:00,
2013-02-26 16:07:00,64.3,38.8,29.88,ESE,112,3.0,5.0,39,0.00,,---,0.00,VWS V14.01,2013-02-26 22:07:00,
2013-02-26 16:12:00,64.3,38.2,29.88,ENE,75,5.0,5.0,38,0.00,,---,0.00,VWS V14.01,2013-02-26 22:12:00,
2013-02-26 16:17:00,64.6,37.1,29.89,East,98,3.0,6.0,36,0.00,,---,0.00,VWS V14.01,2013-02-26 22:17:00,
2013-02-26 16:22:00,64.9,36.6,29.89,North,8,5.0,8.0,35,0.00,,---,0.00,VWS V14.01,2013-02-26 22:22:00,
2013-02-26 16:27:00,65.0,37.4,29.88,NNE,32,3.0,8.0,36,0.00,,---,0.00,VWS V14.01,2013-02-26 22:27:00,
2013-02-26 16:32:00,65.1,38.2,29.88,North,349,4.0,8.0,37,0.00,,---,0.00,VWS V14.01,2013-02-26 22:32:00,
2013-02-26 16:37:00,64.9,37.3,29.88,North,1,2.0,9.0,36,0.00,,---,0.00,VWS V14.01,2013-02-26 22:37:00,
2013-02-26 16:42:00,64.7,37.8,29.88,NNE,14,7.0,9.0,37,0.00,,---,0.00,VWS V14.01,2013-02-26 22:42:00,
2013-02-26 16:47:00,64.6,37.8,29.89,NNE,18,2.0,9.0,37,0.00,,---,0.00,VWS V14.01,2013-02-26 22:47:00,
2013-02-26 16:52:00,64.5,38.3,29.89,NNE,15,3.0,9.0,38,0.00,,---,0.00,VWS V14.01,2013-02-26 22:52:00,
2013-02-26 16:57:00,64.4,36.9,29.89,NNW,338,5.0,9.0,36,0.00,,---,0.00,VWS V14.01,2013-02-26 22:57:00,
2013-02-26 17:02:00,64.5,35.5,29.89,NNW,339,3.0,4.0,34,0.00,,---,0.00,VWS V14.01,2013-02-26 23:02:00,
2013-02-26 17:07:00,64.6,37.1,29.89,North,357,1.0,5.0,36,0.00,,---,0.00,VWS V14.01,2013-02-26 23:07:00,
2013-02-26 17:12:00,64.7,37.8,29.89,North,11,1.0,5.0,37,0.00,,---,0.00,VWS V14.01,2013-02-26 23:12:00,
2013-02-26 17:17:00,64.4,40.2,29.89,North,357,2.0,5.0,41,0.00,,---,0.00,VWS V14.01,2013-02-26 23:17:00,
2013-02-26 17:22:00,64.1,40.6,29.89,NNW,332,3.0,5.0,42,0.00,,---,0.00,VWS V14.01,2013-02-26 23:22:00,
2013-02-26 17:27:00,63.9,39.1,29.89,NNE,22,1.0,5.0,40,0.00,,---,0.00,VWS V14.01,2013-02-26 23:27:00,
2013-02-26 17:32:00,63.7,39.6,29.89,NNE,13,2.0,5.0,41,0.00,,---,0.00,VWS V14.01,2013-02-26 23:32:00,
2013-02-26 17:37:00,63.5,41.8,29.89,NNE,30,0.0,5.0,45,0.00,,---,0.00,VWS V14.01,2013-02-26 23:37:00,
2013-02-26 17:42:00,63.5,41.8,29.89,ENE,75,2.0,5.0,45,0.00,,---,0.00,VWS V14.01,2013-02-26 23:42:00,
2013-02-26 17:47:00,63.5,41.8,29.90,East,94,1.0,5.0,45,0.00,,---,0.00,VWS V14.01,2013-02-26 23:47:00,
2013-02-26 17:52:00,63.3,47.3,29.90,South,173,4.0,6.0,56,0.00,,---,0.00,VWS V14.01,2013-02-26 23:52:00,
2013-02-26 17:57:00,62.6,49.0,29.90,South,177,1.0,6.0,61,0.00,,---,0.00,VWS V14.01,2013-02-26 23:57:00,
2013-02-26 18:02:00,62.0,48.0,29.89,South,175,2.0,2.0,60,0.00,,---,0.00,VWS V14.01,2013-02-27 00:02:00,
2013-02-26 18:07:00,61.4,49.1,29.89,SE,143,1.0,6.0,64,0.00,,---,0.00,VWS V14.01,2013-02-27 00:07:00,
2013-02-26 18:12:00,60.9,48.2,29.90,South,187,3.0,6.0,63,0.00,,---,0.00,VWS V14.01,2013-02-27 00:12:00,
2013-02-26 18:17:00,60.5,48.3,29.90,SSE,155,2.0,6.0,64,0.00,,---,0.00,VWS V14.01,2013-02-27 00:17:00,
2013-02-26 18:23:00,60.1,48.3,29.90,SSE,155,1.0,6.0,65,0.00,,---,0.00,VWS V14.01,2013-02-27 00:23:00,
2013-02-26 18:28:00,59.8,48.0,29.90,SSE,160,2.0,6.0,65,0.00,,---,0.00,VWS V14.01,2013-02-27 00:28:00,
2013-02-26 18:33:00,59.6,48.6,29.90,SSE,158,2.0,6.0,67,0.00,,---,0.00,VWS V14.01,2013-02-27 00:33:00,
2013-02-26 18:38:00,59.3,48.8,29.91,SSE,165,1.0,6.0,68,0.00,,---,0.00,VWS V14.01,2013-02-27 00:38:00,
2013-02-26 18:43:00,59.2,49.0,29.91,SSE,149,1.0,6.0,69,0.00,,---,0.00,VWS V14.01,2013-02-27 00:43:00,
2013-02-26 18:48:00,59.0,49.6,29.91,South,190,1.0,6.0,71,0.00,,---,0.00,VWS V14.01,2013-02-27 00:48:00,
2013-02-26 18:53:00,58.9,49.5,29.90,SSE,152,1.0,6.0,71,0.00,,---,0.00,VWS V14.01,2013-02-27 00:53:00,
2013-02-26 18:58:00,58.7,49.7,29.90,SSE,149,2.0,6.0,72,0.00,,---,0.00,VWS V14.01,2013-02-27 00:58:00,
2013-02-26 19:03:00,58.4,49.8,29.91,SSE,167,0.0,0.0,73,0.00,,---,0.00,VWS V14.01,2013-02-27 01:03:00,
2013-02-26 19:08:00,58.2,49.6,29.90,SSE,149,0.0,1.0,73,0.00,,---,0.00,VWS V14.01,2013-02-27 01:08:00,
2013-02-26 19:13:00,58.1,49.9,29.90,SSE,163,1.0,2.0,74,0.00,,---,0.00,VWS V14.01,2013-02-27 01:13:00,
2013-02-26 19:18:00,58.0,49.8,29.91,SSE,153,1.0,2.0,74,0.00,,---,0.00,VWS V14.01,2013-02-27 01:18:00,
2013-02-26 19:23:00,58.1,50.2,29.91,SE,146,0.0,2.0,75,0.00,,---,0.00,VWS V14.01,2013-02-27 01:23:00,
2013-02-26 19:28:00,58.1,50.2,29.91,SE,145,0.0,2.0,75,0.00,,---,0.00,VWS V14.01,2013-02-27 01:28:00,
2013-02-26 19:33:00,58.3,50.4,29.91,SE,133,1.0,2.0,75,0.00,,---,0.00,VWS V14.01,2013-02-27 01:33:00,
2013-02-26 19:38:00,58.3,50.8,29.91,SE,133,0.0,2.0,76,0.00,,---,0.00,VWS V14.01,2013-02-27 01:38:00,
2013-02-26 19:44:00,58.1,50.6,29.91,SE,139,1.0,2.0,76,0.00,,---,0.00,VWS V14.01,2013-02-27 01:44:00,
2013-02-26 19:49:00,57.9,50.7,29.91,SSE,154,0.0,2.0,77,0.00,,---,0.00,VWS V14.01,2013-02-27 01:49:00,
2013-02-26 19:54:00,57.7,50.9,29.91,SSE,151,2.0,2.0,78,0.00,,---,0.00,VWS V14.01,2013-02-27 01:54:00,
2013-02-26 19:59:00,57.7,51.2,29.91,SE,139,1.0,2.0,79,0.00,,---,0.00,VWS V14.01,2013-02-27 01:59:00,
2013-02-26 20:04:00,57.7,50.9,29.91,ESE,115,1.0,1.0,78,0.00,,---,0.00,VWS V14.01,2013-02-27 02:04:00,
2013-02-26 20:09:00,57.9,50.7,29.91,SE,146,0.0,3.0,77,0.00,,---,0.00,VWS V14.01,2013-02-27 02:09:00,
2013-02-26 20:14:00,57.9,50.7,29.92,SE,128,1.0,3.0,77,0.00,,---,0.00,VWS V14.01,2013-02-27 02:14:00,
2013-02-26 20:19:00,58.0,50.8,29.92,SE,127,1.0,3.0,77,0.00,,---,0.00,VWS V14.01,2013-02-27 02:19:00,
2013-02-26 20:24:00,58.0,51.2,29.92,ESE,117,0.0,3.0,78,0.00,,---,0.00,VWS V14.01,2013-02-27 02:24:00,
2013-02-26 20:29:00,57.9,51.8,29.92,SSE,152,2.0,4.0,80,0.00,,---,0.00,VWS V14.01,2013-02-27 02:29:00,
2013-02-26 20:34:00,57.8,52.0,29.92,ESE,112,1.0,4.0,81,0.00,,---,0.00,VWS V14.01,2013-02-27 02:34:00,
2013-02-26 20:39:00,57.9,52.1,29.93,East,100,3.0,4.0,81,0.00,,---,0.00,VWS V14.01,2013-02-27 02:39:00,
2013-02-26 20:44:00,58.0,52.2,29.93,SSE,167,1.0,4.0,81,0.00,,---,0.00,VWS V14.01,2013-02-27 02:44:00,
2013-02-26 20:49:00,58.0,51.9,29.93,SE,131,1.0,4.0,80,0.00,,---,0.00,VWS V14.01,2013-02-27 02:49:00,
2013-02-26 20:54:00,57.9,51.8,29.94,SSE,153,2.0,4.0,80,0.00,,---,0.00,VWS V14.01,2013-02-27 02:54:00,
2013-02-26 20:59:00,57.8,51.3,29.94,SSE,165,1.0,4.0,79,0.00,,---,0.00,VWS V14.01,2013-02-27 02:59:00,
2013-02-26 21:04:00,57.8,51.3,29.94,SSE,154,1.0,3.0,79,0.00,,---,0.00,VWS V14.01,2013-02-27 03:04:00,
2013-02-26 21:09:00,57.9,51.4,29.94,SSE,153,1.0,4.0,79,0.00,,---,0.00,VWS V14.01,2013-02-27 03:09:00,
2013-02-26 21:14:00,57.9,51.4,29.94,SSE,165,2.0,4.0,79,0.00,,---,0.00,VWS V14.01,2013-02-27 03:14:00,
2013-02-26 21:19:00,58.0,51.5,29.94,SSE,163,1.0,4.0,79,0.00,,---,0.00,VWS V14.01,2013-02-27 03:19:00,
2013-02-26 21:24:00,58.1,51.3,29.94,SE,136,2.0,5.0,78,0.00,,---,0.00,VWS V14.01,2013-02-27 03:24:00,
2013-02-26 21:29:00,58.3,51.1,29.94,SSE,163,3.0,5.0,77,0.00,,---,0.00,VWS V14.01,2013-02-27 03:29:00,
2013-02-26 21:34:00,58.4,50.9,29.94,SE,136,2.0,5.0,76,0.00,,---,0.00,VWS V14.01,2013-02-27 03:34:00,
2013-02-26 21:39:00,58.4,50.9,29.94,SE,141,3.0,5.0,76,0.00,,---,0.00,VWS V14.01,2013-02-27 03:39:00,
2013-02-26 21:44:00,58.4,50.9,29.94,SE,132,1.0,5.0,76,0.00,,---,0.00,VWS V14.01,2013-02-27 03:44:00,
2013-02-26 21:49:00,58.4,51.2,29.94,SSE,149,2.0,5.0,77,0.00,,---,0.00,VWS V14.01,2013-02-27 03:49:00,
2013-02-26 21:54:00,58.4,51.2,29.95,SSE,167,1.0,5.0,77,0.00,,---,0.00,VWS V14.01,2013-02-27 03:54:00,
2013-02-26 21:59:00,58.6,51.8,29.95,SSE,155,1.0,5.0,78,0.00,,---,0.00,VWS V14.01,2013-02-27 03:59:00,
2013-02-26 22:04:00,58.5,51.3,29.95,South,181,4.0,4.0,77,0.00,,---,0.00,VWS V14.01,2013-02-27 04:04:00,
2013-02-26 22:09:00,58.6,51.8,29.95,SSE,149,3.0,5.0,78,0.00,,---,0.00,VWS V14.01,2013-02-27 04:09:00,
2013-02-26 22:14:00,58.5,51.7,29.95,SSE,154,2.0,6.0,78,0.00,,---,0.00,VWS V14.01,2013-02-27 04:14:00,
2013-02-26 22:19:00,58.4,51.6,29.95,SSE,166,3.0,6.0,78,0.00,,---,0.00,VWS V14.01,2013-02-27 04:19:00,
2013-02-26 22:24:00,58.3,51.8,29.95,SSE,160,4.0,6.0,79,0.00,,---,0.00,VWS V14.01,2013-02-27 04:24:00,
2013-02-26 22:29:00,58.1,52.0,29.95,SE,125,2.0,6.0,80,0.00,,---,0.00,VWS V14.01,2013-02-27 04:29:00,
2013-02-26 22:34:00,58.0,51.5,29.95,SSE,154,2.0,6.0,79,0.00,,---,0.00,VWS V14.01,2013-02-27 04:34:00,
2013-02-26 22:39:00,58.0,51.2,29.95,SSE,162,4.0,6.0,78,0.00,,---,0.00,VWS V14.01,2013-02-27 04:39:00,
2013-02-26 22:44:00,58.1,51.3,29.94,SSE,167,2.0,6.0,78,0.00,,---,0.00,VWS V14.01,2013-02-27 04:44:00,
2013-02-26 22:49:00,58.1,51.3,29.95,South,183,1.0,6.0,78,0.00,,---,0.00,VWS V14.01,2013-02-27 04:49:00,
2013-02-26 22:54:00,58.0,51.2,29.94,SE,127,2.0,6.0,78,0.00,,---,0.00,VWS V14.01,2013-02-27 04:54:00,
2013-02-26 22:59:00,57.9,50.7,29.95,SE,130,1.0,6.0,77,0.00,,---,0.00,VWS V14.01,2013-02-27 04:59:00,
2013-02-26 23:00:00,57.9,50.7,29.95,SE,143,3.0,6.0,77,0.00,,---,0.00,VWS V14.01,2013-02-27 05:00:00,
2013-02-26 23:05:00,57.9,50.7,29.94,SE,134,1.0,3.0,77,0.00,,---,0.00,VWS V14.01,2013-02-27 05:05:00,
2013-02-26 23:10:00,58.0,50.5,29.94,SSE,154,3.0,6.0,76,0.00,,---,0.00,VWS V14.01,2013-02-27 05:10:00,
2013-02-26 23:15:00,58.1,50.6,29.94,SSE,149,2.0,6.0,76,0.00,,---,0.00,VWS V14.01,2013-02-27 05:15:00,
2013-02-26 23:20:00,58.3,50.8,29.94,SSE,159,4.0,6.0,76,0.00,,---,0.00,VWS V14.01,2013-02-27 05:20:00,
2013-02-26 23:25:00,58.4,50.9,29.93,SE,146,3.0,6.0,76,0.00,,---,0.00,VWS V14.01,2013-02-27 05:25:00,
2013-02-26 23:30:00,58.4,50.9,29.93,SSE,156,3.0,6.0,76,0.00,,---,0.00,VWS V14.01,2013-02-27 05:30:00,
2013-02-26 23:35:00,58.5,51.0,29.94,SSE,155,4.0,6.0,76,0.00,,---,0.00,VWS V14.01,2013-02-27 05:35:00,
2013-02-26 23:40:00,58.5,51.3,29.93,SSE,157,1.0,6.0,77,0.00,,---,0.00,VWS V14.01,2013-02-27 05:40:00,
2013-02-26 23:45:00,58.4,51.6,29.93,SSE,160,2.0,6.0,78,0.00,,---,0.00,VWS V14.01,2013-02-27 05:45:00,
2013-02-26 23:50:00,58.3,51.8,29.93,SSE,160,4.0,6.0,79,0.00,,---,0.00,VWS V14.01,2013-02-27 05:50:00,
2013-02-26 23:55:00,58.2,52.1,29.93,SSE,163,3.0,6.0,80,0.00,,---,0.00,VWS V14.01,2013-02-27 05:55:00,